Le nostre stazioni meteo in Italia

Pubblicità
Il mio iltempo24.it
Capo Mele, Italia (16153): Temperatura & dewpoint: 20.08.2019 12:00:00 - 26.08.2019 12:00:00 (CEST)Capo Mele, Italia (16153): velocità del vento: 20.08.2019 12:00:00 - 26.08.2019 12:00:00 (CEST)Capo Mele, Italia (16153): direzione del vento: 20.08.2019 12:00:00 - 26.08.2019 12:00:00 (CEST)Capo Mele, Italia (16153): reduced air pressure: 20.08.2019 12:00:00 - 26.08.2019 12:00:00 (CEST)Capo Mele, Italia (16153): visibility: 20.08.2019 12:00:00 - 26.08.2019 12:00:00 (CEST)Capo Mele, Italia (16153): ore di luce: 20.08.2019 12:00:00 - 26.08.2019 12:00:00 (CEST)
Data & Tempo tt [°C] td [°C] ff [km/h] ff [kn] dd ppp [hPa] vv [km] sd [min]
26.08.2019 12:00:00 27,8 20,4 11 6 OSO 1018,7 20 60
26.08.2019 11:00:00 27,6 19,1 11 6 SSO 1018,1 30 60
26.08.2019 10:00:00 26,4 18,0 5 3 SSO 1018,0 30 60
26.08.2019 09:00:00 24,6 17,4 5 3 SO 1018,0 20 42
26.08.2019 08:00:00 24,4 17,6 5 3 SSO 1017,6 25 -
26.08.2019 07:00:00 24,4 17,7 4 2 SO 1017,4 25 -
26.08.2019 06:00:00 24,4 17,9 5 3 SO 1017,4 35 -
26.08.2019 05:00:00 25,0 18,0 5 3 OSO 1017,4 20 -
26.08.2019 04:00:00 25,0 18,0 4 2 E 1017,5 20 -
26.08.2019 03:00:00 25,0 17,7 5 3 SO 1017,8 35 -
26.08.2019 02:00:00 25,0 17,5 4 2 N 1018,2 35 -
26.08.2019 01:00:00 25,4 17,6 2 1 ENE 1018,3 35 -
26.08.2019 00:00:00 25,4 17,6 4 2 NE 1018,3 35 -
25.08.2019 23:00:00 26,0 17,9 5 3 NNE 1018,2 35 -
25.08.2019 22:00:00 26,2 18,4 4 2 NNE 1017,6 35 -
25.08.2019 21:00:00 26,8 19,2 2 1 NO 1017,1 20 -
25.08.2019 20:00:00 27,0 20,1 4 2 N 1017,1 30 30
25.08.2019 19:00:00 27,8 22,1 13 7 OSO 1017,0 30 60
25.08.2019 18:00:00 28,2 20,7 15 8 OSO 1017,0 30 60
25.08.2019 17:00:00 28,6 22,1 16 9 SO 1017,0 30 60
25.08.2019 16:00:00 28,0 21,5 16 9 SO 1017,1 30 60
25.08.2019 15:00:00 29,0 22,5 21 11 SO 1017,4 20 60
25.08.2019 14:00:00 29,0 18,2 18 10 SO 1017,8 30 60
25.08.2019 13:00:00 28,8 18,3 15 8 SSO 1018,0 30 60
25.08.2019 12:00:00 28,0 18,7 8 4 SO 1018,1 20 60
25.08.2019 11:00:00 29,6 24,3 8 4 ESE 1017,9 20 60
25.08.2019 10:00:00 27,6 17,8 9 5 N 1017,5 25 60
25.08.2019 09:00:00 25,4 17,9 13 7 N 1017,5 20 24
25.08.2019 08:00:00 24,4 16,9 9 5 NNE 1017,4 25 -
25.08.2019 07:00:00 24,6 16,8 15 8 NNE 1017,3 20 -
25.08.2019 06:00:00 24,4 17,2 15 8 N 1017,4 30 -
25.08.2019 05:00:00 24,0 17,0 16 9 NNE 1017,7 20 -
25.08.2019 04:00:00 24,0 16,8 9 5 NNE 1018,1 30 -
25.08.2019 03:00:00 24,2 17,0 9 5 NNE 1018,2 20 -
25.08.2019 02:00:00 25,0 16,7 5 3 NNE 1018,3 20 -
25.08.2019 01:00:00 25,0 16,7 8 4 NNE 1018,3 20 -
25.08.2019 00:00:00 25,2 16,9 8 4 ONO 1018,3 30 -
24.08.2019 23:00:00 25,4 17,3 8 4 ONO 1018,3 20 -
24.08.2019 22:00:00 25,2 16,6 0 0 N 1018,2 20 -
24.08.2019 21:00:00 25,2 16,4 4 2 O 1018,1 20 -
24.08.2019 20:00:00 26,6 17,7 2 1 NNE 1018,0 30 30
24.08.2019 19:00:00 26,2 18,4 4 2 SSE 1018,1 20 60
24.08.2019 18:00:00 27,4 18,7 4 2 SSE 1018,1 20 60
24.08.2019 17:00:00 27,8 19,3 11 6 E 1018,1 35 60
24.08.2019 16:00:00 30,8 21,6 26 14 ENE 1018,0 20 60
24.08.2019 15:00:00 31,8 22,2 31 17 ENE 1018,1 35 60
24.08.2019 14:00:00 31,6 20,9 34 18 NE 1018,7 20 60
24.08.2019 13:00:00 28,2 16,2 24 13 NE 1019,1 35 60
24.08.2019 12:00:00 29,2 17,7 24 13 N 1019,3 20 30
24.08.2019 11:00:00 29,0 17,5 21 11 NNE 1019,1 20 60
24.08.2019 10:00:00 27,2 16,8 22 12 N 1019,2 25 60
24.08.2019 09:00:00 25,4 16,5 26 14 N 1019,3 20 18
24.08.2019 08:00:00 24,0 16,3 21 11 N 1019,4 20 -
24.08.2019 07:00:00 24,0 16,8 21 11 N 1019,2 20 -
24.08.2019 06:00:00 24,0 16,3 22 12 N 1019,3 20 -
24.08.2019 05:00:00 24,2 16,2 22 12 N 1019,2 20 -
24.08.2019 04:00:00 24,2 16,5 26 14 N 1019,6 20 -
24.08.2019 03:00:00 24,8 16,8 24 13 N 1019,7 20 -
24.08.2019 02:00:00 25,0 16,2 26 14 N 1019,6 20 -
24.08.2019 01:00:00 25,0 16,2 26 14 N 1019,6 20 -
24.08.2019 00:00:00 25,0 16,2 29 16 N 1019,6 20 -
23.08.2019 23:00:00 25,0 15,9 31 17 N 1019,5 20 -
23.08.2019 22:00:00 25,5 16,4 28 15 N 1019,6 20 -
23.08.2019 21:00:00 25,6 16,7 28 15 N 1019,5 20 -
23.08.2019 20:00:00 26,2 15,6 22 12 N 1019,1 20 0
23.08.2019 19:00:00 26,2 17,0 24 13 N 1019,2 20 0
23.08.2019 18:00:00 25,2 16,9 21 11 N 1019,3 20 0
23.08.2019 17:00:00 25,8 18,0 24 13 N 1019,4 20 0
23.08.2019 16:00:00 23,0 16,6 13 7 N 1020,4 20 0
23.08.2019 15:00:00 23,8 21,1 8 4 NNE 1020,9 20 0
23.08.2019 14:00:00 23,8 19,5 15 8 ESE 1021,0 20 0
23.08.2019 13:00:00 24,0 19,5 13 7 E 1021,0 20 0
23.08.2019 12:00:00 25,0 18,2 26 14 ENE 1020,4 20 0
23.08.2019 11:00:00 26,2 16,2 18 10 N 1020,2 20 12
23.08.2019 10:00:00 27,0 17,8 21 11 NNE 1019,6 20 24
23.08.2019 09:00:00 26,2 15,0 29 16 N 1019,0 20 30
23.08.2019 08:00:00 25,0 14,5 22 12 N 1019,1 20 -
23.08.2019 07:00:00 25,0 15,4 18 10 N 1018,5 25 -
23.08.2019 06:00:00 25,2 14,0 28 15 N 1018,4 25 -
23.08.2019 05:00:00 25,2 13,7 26 14 N 1018,6 30 -
23.08.2019 04:00:00 25,4 13,9 24 13 N 1019,3 30 -
23.08.2019 03:00:00 25,4 13,3 26 14 N 1019,3 30 -
23.08.2019 02:00:00 25,8 13,7 21 11 NNE 1019,3 30 -
23.08.2019 01:00:00 26,0 14,2 18 10 N 1019,3 20 -
23.08.2019 00:00:00 26,0 13,8 18 10 N 1019,3 30 -
22.08.2019 23:00:00 27,0 15,1 16 9 N 1019,2 20 -
22.08.2019 22:00:00 27,0 14,4 11 6 N 1019,1 20 -
22.08.2019 21:00:00 27,2 14,2 9 5 N 1018,6 30 -
22.08.2019 20:00:00 29,0 15,2 18 10 N 1018,1 30 24
22.08.2019 19:00:00 29,8 15,1 21 11 N 1018,0 20 60
22.08.2019 18:00:00 31,0 15,4 24 13 N 1017,9 20 60
22.08.2019 17:00:00 32,0 17,5 24 13 NE 1017,9 20 60
22.08.2019 16:00:00 32,0 17,5 34 18 NE 1018,0 30 60
22.08.2019 15:00:00 32,5 17,2 29 16 NE 1018,6 30 60
22.08.2019 14:00:00 31,8 14,9 21 11 N 1018,6 20 60
22.08.2019 13:00:00 27,5 11,5 18 10 N 1019,2 20 6
22.08.2019 12:00:00 27,8 15,8 26 14 N 1019,2 30 24
22.08.2019 11:00:00 30,0 19,1 24 13 N 1018,8 30 54
22.08.2019 10:00:00 28,0 16,6 16 9 N 1018,9 30 60
22.08.2019 09:00:00 26,0 15,7 13 7 N 1018,2 20 48
22.08.2019 08:00:00 25,2 16,1 16 9 N 1018,0 20 -
22.08.2019 07:00:00 25,4 16,8 13 7 NNE 1018,0 20 -
22.08.2019 06:00:00 25,4 16,5 11 6 NNE 1017,9 30 -
22.08.2019 05:00:00 25,6 16,7 8 4 NNE 1017,9 35 -
22.08.2019 04:00:00 26,0 17,1 13 7 NE 1017,6 35 -
22.08.2019 03:00:00 26,0 17,1 11 6 N 1018,0 35 -
22.08.2019 02:00:00 25,0 16,7 13 7 N 1018,3 20 -
22.08.2019 01:00:00 25,0 17,7 8 4 NNE 1018,3 35 -
22.08.2019 00:00:00 25,0 18,0 11 6 NNE 1018,3 35 -
21.08.2019 23:00:00 25,0 18,5 4 2 NNE 1018,3 20 -
21.08.2019 22:00:00 25,2 18,9 4 2 N 1018,2 20 -
21.08.2019 21:00:00 26,4 19,8 4 2 NNE 1017,3 20 -
21.08.2019 20:00:00 26,6 18,2 4 2 N 1017,3 25 30
21.08.2019 19:00:00 27,2 21,2 8 4 OSO 1018,1 30 60
21.08.2019 18:00:00 28,2 21,7 9 5 SSO 1018,0 20 60
21.08.2019 17:00:00 28,4 20,9 9 5 SSO 1018,0 20 60
21.08.2019 16:00:00 27,8 20,9 9 5 SSO 1018,1 20 60
21.08.2019 15:00:00 29,8 21,5 11 6 E 1018,0 30 60
21.08.2019 14:00:00 31,0 21,5 18 10 ENE 1017,9 20 60
21.08.2019 13:00:00 28,8 21,6 16 9 ENE 1018,1 25 60
21.08.2019 12:00:00 27,8 20,9 13 7 ENE 1018,1 25 60
21.08.2019 11:00:00 27,0 21,3 13 7 NE 1018,2 25 60
21.08.2019 10:00:00 25,4 20,9 9 5 NE 1018,3 20 60
21.08.2019 09:00:00 24,2 20,9 8 4 NE 1018,4 20 24
21.08.2019 08:00:00 22,6 21,9 8 4 ENE 1018,3 20 -
21.08.2019 07:00:00 22,8 22,1 8 4 NE 1017,7 20 -
21.08.2019 06:00:00 23,0 22,5 8 4 NNE 1017,5 25 -
21.08.2019 05:00:00 23,2 22,4 8 4 NNE 1017,5 20 -
21.08.2019 04:00:00 23,4 22,2 4 2 NNE 1017,4 25 -
21.08.2019 03:00:00 23,4 22,0 5 3 NE 1017,5 20 -
21.08.2019 02:00:00 23,8 22,4 5 3 SSO 1017,6 25 -
21.08.2019 01:00:00 23,8 22,1 5 3 SSO 1017,6 20 -
21.08.2019 00:00:00 24,0 22,3 11 6 NNE 1017,2 25 -
20.08.2019 23:00:00 24,0 21,9 11 6 N 1017,4 20 -
20.08.2019 22:00:00 24,0 20,3 5 3 SSO 1017,6 25 -
20.08.2019 21:00:00 24,6 22,7 13 7 SO 1017,3 20 -
20.08.2019 20:00:00 25,2 21,7 16 9 OSO 1017,3 20 0
20.08.2019 19:00:00 26,2 22,1 16 9 SO 1017,6 20 60
20.08.2019 18:00:00 27,0 21,7 9 5 S 1017,5 20 60
20.08.2019 17:00:00 27,6 22,1 8 4 E 1017,9 20 60
20.08.2019 16:00:00 28,8 23,3 11 6 ENE 1018,0 20 60
20.08.2019 15:00:00 28,6 22,4 15 8 NE 1018,0 20 60
20.08.2019 14:00:00 28,6 22,6 18 10 NE 1018,0 20 60
20.08.2019 13:00:00 30,0 23,0 18 10 NE 1018,1 20 60
20.08.2019 12:00:00 28,0 20,5 18 10 NE 1018,3 25 60

tt = Temperatura
td = dewpoint
ff = velocità del vento
dd = direzione del vento
ppp = reduced air pressure
vv = visibility
sd = ore di luce

Stazioni seguenti

WeatherPro
AMSI
MeteoEarth